Wind_Speed
34 34 35 35 35 36 36 36 36 35 35 34 33 33 32 32 31 30 28 27 27 26 25 26 25 25 24 24 24 23 22 21 20 19 18 17 16 15 15 16 16 16 15
34 35 35 36 38 39 40 40 39 39 38 37 37 36 35 35 35 33 32 31 30 29 28 27 27 26 26 26 26 25 25 25 23 22 21 20 19 18 17 17 17 17 17
33 34 34 34 36 38 39 41 42 42 41 40 39 39 39 38 39 38 36 34 33 32 31 29 29 28 27 27 26 26 27 26 26 26 24 23 22 21 20 19 18 18 18
32 32 33 33 35 36 37 39 40 41 42 42 41 41 41 40 40 41 39 38 36 35 33 32 31 30 29 28 28 28 27 28 28 28 27 26 26 24 23 22 21 20 20
30 31 31 32 33 35 37 38 39 41 41 42 41 41 40 40 40 40 40 40 38 37 35 34 33 32 31 30 29 29 28 28 28 29 29 28 28 27 26 25 24 22 22
29 30 30 31 33 34 36 37 38 40 41 41 42 42 41 40 39 38 39 40 40 39 38 36 35 33 32 31 30 29 29 29 28 29 30 29 30 30 29 28 26 25 24
28 29 29 30 32 34 34 36 37 39 39 40 40 40 40 40 40 38 38 38 38 38 39 38 37 35 33 32 32 31 30 29 29 29 30 31 31 32 32 31 29 28 26
27 28 28 29 31 32 33 34 36 37 37 38 39 38 36 37 37 38 36 36 36 37 38 37 36 34 33 32 31 31 30 29 29 29 30 31 31 31 31 32 31 30 28
26 27 28 29 30 32 32 34 36 37 37 37 38 38 37 36 36 35 35 34 35 36 35 35 34 33 33 32 30 30 30 30 30 30 30 31 31 32 31 31 32 31 30
27 27 28 29 30 31 32 34 35 37 37 37 37 37 37 36 35 34 34 33 33 33 33 33 32 33 32 31 30 30 30 29 30 30 29 30 31 32 32 32 32 32 31
27 28 28 29 30 31 32 33 35 36 37 38 37 37 37 36 34 34 33 33 33 32 32 33 32 31 32 31 31 30 30 30 30 31 30 30 31 32 33 32 32 33 33
29 29 29 29 30 31 32 33 34 35 36 37 38 38 37 36 35 34 33 32 33 33 33 32 32 32 32 32 31 31 31 31 31 31 31 31 30 31 33 34 33 32 33
31 30 30 30 31 31 32 32 34 35 35 36 37 38 38 37 37 36 34 33 33 33 33 33 33 33 33 33 33 33 32 32 32 32 32 31 31 32 32 32 32 32 33
32 32 32 32 32 32 32 33 33 34 35 35 36 37 38 37 37 37 36 34 34 33 33 33 34 34 33 33 33 33 33 32 32 33 33 33 33 33 32 32 32 32 33
34 33 33 33 33 33 33 33 33 34 34 34 35 36 37 37 37 37 37 36 35 34 33 33 34 34 34 33 33 33 32 32 32 33 33 33 34 34 33 34 34 33 32
36 35 34 34 34 34 33 34 33 33 33 33 33 34 35 36 37 37 37 37 36 36 35 34 34 35 34 33 32 32 32 32 33 33 34 34 34 35 35 35 36 34 33
37 36 35 35 35 34 34 34 34 33 32 32 32 32 33 34 35 36 36 36 36 36 35 34 34 33 33 33 32 32 32 31 32 32 33 34 34 34 33 35 35 33 32
39 37 36 36 35 35 34 34 33 33 32 31 32 32 31 32 33 34 35 35 35 35 34 34 34 33 33 33 33 33 32 32 32 31 33 34 34 33 33 33 32 31 31
42 40 38 37 36 35 35 34 33 32 31 30 30 30 30 30 31 32 33 33 33 33 33 34 34 34 33 33 33 33 33 33 32 32 33 33 33 33 31 30 30 30 30
45 43 41 39 37 36 35 34 34 32 31 30 29 28 28 28 28 29 30 31 32 32 33 33 35 34 35 34 34 33 32 32 31 31 31 31 30 29 29 29 28 29 29
49 46 44 41 39 37 36 35 34 32 31 29 28 27 26 25 25 27 28 29 30 31 31 32 34 35 34 34 33 33 32 32 31 29 28 29 29 28 28 28 27 28 28
52 50 46 43 41 39 37 35 34 32 30 29 27 26 25 24 24 25 26 27 27 29 30 31 32 32 32 33 33 32 31 31 30 29 28 27 27 27 26 26 26 26 26
55 52 48 45 43 41 38 36 34 32 30 28 26 25 25 24 24 24 24 25 26 27 29 30 30 31 31 31 31 31 31 29 27 26 26 25 24 23 23 22 22 23 24
58 54 50 47 45 42 40 37 35 32 29 27 25 24 23 23 23 23 24 24 24 26 27 28 27 27 27 27 28 28 28 28 26 25 23 21 21 20 20 20 20 21 22
57 55 52 49 46 43 41 37 35 32 29 27 24 23 22 22 22 22 23 24 23 24 25 25 25 26 26 26 27 26 25 24 23 22 20 19 19 18 18 18 19 21 22
53 52 51 48 46 43 40 38 35 32 29 27 25 23 21 19 19 20 21 21 22 21 22 23 23 23 23 22 21 21 21 20 20 18 17 15 15 15 16 17 19 20 22
Wind_Direction
283 281 279 279 276 273 271 270 270 270 270 271 271 270 269 269 269 269 269 268 267 269 270 269 269 270 267 264 262 261 258 253 249 247 243 240 239 239 239 240 241 243 244
284 281 280 279 277 274 270 268 267 268 268 269 269 268 268 268 267 266 266 267 268 268 269 268 268 269 269 265 262 260 257 253 249 247 245 242 241 240 240 240 240 241 242
285 282 282 282 280 279 274 270 268 266 266 267 267 266 267 267 267 265 265 265 267 267 267 268 268 268 270 267 263 260 258 254 252 248 246 243 242 242 240 240 241 241 241
287 285 284 283 283 282 279 274 272 271 270 269 267 267 268 267 268 267 266 265 266 266 267 267 268 267 267 266 264 261 259 257 254 251 248 245 243 242 241 240 240 240 241
289 288 287 285 283 283 282 279 275 272 272 272 270 270 270 270 270 269 268 266 263 264 265 266 266 266 265 264 264 261 259 257 255 253 249 247 244 242 241 240 240 240 241
291 290 290 289 287 286 284 282 279 275 274 273 272 271 271 271 270 270 269 267 263 262 262 263 264 265 264 262 262 261 259 257 255 252 248 248 245 242 240 240 240 240 240
293 293 294 293 290 289 287 284 281 279 277 277 276 275 272 270 269 269 267 266 264 261 261 261 261 263 262 259 261 261 259 257 254 253 249 248 247 244 242 241 241 241 240
295 295 295 294 292 290 289 286 284 282 280 279 278 277 275 272 271 268 265 264 262 261 261 260 259 261 259 260 259 259 258 254 255 254 252 249 246 244 242 242 241 241 239
299 298 296 295 293 291 289 287 285 283 282 280 278 276 274 274 272 268 266 264 263 261 259 258 257 257 257 256 257 256 256 255 254 253 253 249 246 243 242 242 241 240 240
300 301 300 298 297 294 291 289 287 284 282 280 278 276 273 272 271 269 266 265 263 260 259 258 256 255 254 254 254 254 254 255 252 251 250 249 246 242 241 242 242 240 240
299 301 301 300 299 296 293 291 288 285 282 279 277 275 274 272 270 268 266 265 263 260 258 257 256 254 252 253 252 253 254 254 252 250 249 249 247 242 241 241 242 241 241
298 299 299 299 300 299 296 292 290 288 284 279 276 274 273 272 271 268 266 263 262 260 258 257 255 254 254 252 252 253 253 253 252 250 249 248 245 242 241 241 241 240 241
296 297 298 298 299 299 298 295 292 289 286 281 276 273 271 270 269 267 266 264 262 259 257 256 255 255 254 253 253 252 251 251 250 249 248 246 244 242 242 240 240 240 240
293 295 295 296 297 298 299 298 295 291 288 284 278 274 271 268 267 265 264 263 261 260 259 256 255 254 253 253 253 252 250 250 249 248 246 245 244 242 240 239 240 241 240
290 292 293 294 295 297 298 298 297 295 291 286 281 276 271 268 266 264 262 261 260 260 259 255 253 252 253 253 252 251 250 249 248 247 245 243 242 241 242 241 239 240 240
288 289 290 291 293 295 296 297 297 296 293 289 284 279 273 267 264 263 262 260 259 258 258 256 254 252 251 251 250 251 250 249 248 246 246 245 245 245 244 242 240 239 240
286 286 288 289 290 292 294 295 296 296 293 290 285 281 275 268 264 262 261 259 258 257 255 254 253 250 248 247 248 248 246 247 247 247 248 247 247 246 245 244 242 240 240
284 284 286 287 288 290 291 292 294 294 293 290 286 282 277 269 264 261 259 258 257 256 253 251 250 247 244 244 245 245 245 247 247 247 247 246 245 245 244 243 242 242 242
282 282 283 284 285 287 288 290 292 292 292 291 288 283 278 269 263 260 258 256 255 253 250 248 246 244 242 241 242 243 244 245 244 245 245 245 245 244 243 244 244 245 246
280 280 280 280 281 283 284 286 288 289 290 291 288 284 280 272 263 259 256 255 253 250 249 247 244 241 241 241 241 242 243 243 242 243 242 242 242 244 246 247 248 248 248
276 277 277 277 278 278 280 282 284 285 287 288 286 282 278 272 263 256 253 251 250 248 246 244 241 239 239 239 239 239 239 238 239 239 241 242 242 244 246 247 249 249 250
272 272 272 273 274 274 275 277 279 281 283 285 283 278 272 267 261 255 251 248 246 245 244 243 241 238 238 237 236 236 236 237 239 240 241 243 244 245 246 247 249 249 251
268 267 267 268 268 269 269 271 274 275 278 280 279 275 269 264 258 252 248 245 242 241 239 238 234 233 233 233 232 232 233 234 235 237 239 241 243 244 245 247 249 253 256
264 263 261 261 262 262 264 265 267 269 271 273 274 271 266 262 255 250 246 243 240 238 237 233 231 231 231 229 228 229 231 230 230 232 234 235 238 240 244 248 252 257 261
259 257 255 254 254 255 257 258 260 262 264 266 267 265 263 259 252 249 244 240 237 234 232 230 228 229 229 226 224 224 227 225 226 228 231 233 236 240 245 251 257 262 267
253 250 248 247 246 246 248 251 253 255 257 258 259 258 256 251 245 241 238 235 232 230 229 226 223 224 222 220 218 219 222 221 223 224 226 230 236 242 250 257 264 269 274
Height
5881 5879 5878 5877 5875 5874 5873 5872 5872 5872 5871 5871 5871 5870 5870 5869 5869 5869 5869 5869 5869 5869 5869 5869 5869 5869 5869 5869 5869 5869 5870 5871 5872 5873 5874 5875 5876 5877 5878 5879 5880 5882 5883
5873 5872 5871 5869 5868 5866 5865 5864 5863 5863 5863 5863 5863 5862 5862 5861 5861 5861 5861 5862 5862 5862 5863 5863 5863 5863 5863 5863 5863 5863 5864 5865 5866 5868 5869 5870 5871 5873 5874 5875 5876 5878 5879
5866 5864 5863 5861 5859 5857 5856 5855 5854 5854 5854 5853 5853 5853 5853 5853 5853 5853 5853 5854 5854 5855 5855 5856 5856 5856 5856 5856 5856 5857 5858 5859 5860 5862 5863 5865 5866 5868 5869 5870 5872 5873 5875
5858 5857 5855 5854 5852 5849 5847 5846 5845 5845 5845 5844 5843 5843 5844 5844 5844 5844 5844 5845 5846 5847 5848 5848 5849 5849 5850 5850 5850 5850 5851 5852 5854 5855 5857 5859 5860 5862 5864 5865 5867 5868 5870
5851 5849 5848 5846 5843 5841 5839 5838 5837 5836 5835 5834 5833 5833 5833 5834 5835 5835 5835 5836 5837 5838 5839 5840 5841 5841 5842 5842 5843 5843 5844 5845 5847 5848 5850 5852 5854 5856 5858 5860 5862 5863 5865
5843 5841 5839 5838 5835 5833 5831 5829 5828 5827 5827 5826 5824 5824 5824 5824 5825 5825 5826 5826 5827 5829 5830 5831 5832 5833 5834 5835 5836 5836 5837 5838 5839 5841 5842 5844 5846 5849 5851 5853 5856 5858 5860
5836 5833 5831 5830 5827 5825 5823 5821 5820 5819 5818 5816 5815 5815 5815 5815 5815 5816 5816 5817 5818 5819 5820 5821 5823 5824 5825 5826 5828 5829 5830 5831 5832 5833 5835 5836 5839 5841 5844 5846 5849 5851 5854
5829 5827 5824 5822 5820 5817 5815 5813 5811 5810 5809 5807 5806 5805 5805 5807 5806 5806 5806 5807 5809 5810 5811 5812 5814 5815 5816 5818 5820 5821 5822 5823 5824 5826 5827 5829 5831 5834 5836 5839 5842 5845 5847
5822 5820 5817 5815 5812 5809 5807 5805 5803 5801 5800 5799 5797 5796 5796 5797 5797 5797 5797 5798 5799 5800 5802 5803 5805 5806 5808 5809 5811 5813 5815 5815 5816 5818 5819 5821 5823 5826 5829 5832 5835 5838 5840
5815 5813 5810 5807 5804 5801 5799 5797 5794 5792 5791 5790 5789 5787 5787 5788 5788 5788 5789 5790 5790 5791 5793 5794 5796 5798 5799 5801 5803 5805 5807 5807 5809 5810 5812 5813 5816 5819 5822 5825 5827 5830 5833
5808 5805 5802 5799 5796 5793 5790 5788 5786 5783 5781 5780 5779 5778 5778 5778 5779 5779 5781 5782 5782 5783 5784 5786 5787 5789 5791 5793 5795 5797 5799 5800 5801 5802 5804 5806 5808 5811 5814 5817 5820 5823 5826
5800 5798 5795 5792 5789 5785 5782 5779 5777 5774 5772 5771 5770 5769 5769 5770 5770 5770 5771 5773 5774 5775 5776 5777 5779 5781 5782 5784 5787 5789 5790 5792 5793 5795 5797 5799 5800 5803 5806 5809 5812 5815 5818
5792 5790 5787 5784 5781 5778 5774 5771 5768 5765 5763 5761 5760 5760 5760 5760 5761 5761 5762 5763 5765 5766 5767 5769 5770 5772 5774 5776 5778 5780 5782 5784 5786 5787 5789 5791 5793 5796 5799 5801 5805 5808 5810
5784 5781 5779 5776 5773 5769 5766 5763 5760 5757 5754 5752 5751 5750 5750 5751 5751 5752 5753 5754 5756 5757 5759 5760 5761 5763 5765 5767 5769 5771 5773 5775 5777 5779 5781 5784 5786 5788 5791 5794 5797 5800 5803
5775 5772 5770 5767 5764 5761 5758 5754 5751 5748 5745 5743 5741 5740 5740 5740 5741 5742 5743 5745 5747 5748 5750 5751 5753 5754 5756 5758 5760 5762 5764 5766 5769 5771 5773 5776 5778 5781 5783 5786 5789 5792 5795
5765 5763 5760 5758 5755 5752 5749 5746 5742 5739 5736 5733 5731 5730 5730 5730 5731 5732 5733 5735 5737 5738 5740 5742 5743 5745 5747 5749 5752 5754 5756 5758 5760 5763 5765 5768 5770 5773 5775 5778 5781 5784 5787
5754 5753 5750 5748 5746 5743 5740 5737 5734 5730 5728 5725 5722 5721 5720 5720 5721 5722 5723 5725 5726 5728 5730 5732 5734 5736 5738 5741 5743 5746 5748 5750 5753 5755 5757 5760 5762 5765 5767 5770 5772 5775 5779
5743 5741 5740 5738 5736 5733 5731 5728 5725 5722 5719 5716 5714 5712 5711 5710 5711 5712 5714 5715 5717 5718 5720 5722 5725 5727 5730 5733 5735 5738 5740 5743 5745 5747 5750 5753 5755 5757 5759 5762 5765 5768 5771
5731 5729 5728 5727 5725 5723 5721 5718 5716 5713 5710 5708 5705 5703 5702 5701 5702 5703 5704 5706 5707 5709 5711 5714 5716 5719 5721 5724 5727 5730 5733 5735 5737 5740 5743 5745 5748 5750 5752 5755 5758 5761 5764
5717 5716 5716 5715 5714 5713 5711 5709 5707 5704 5702 5699 5697 5695 5693 5692 5693 5694 5695 5697 5698 5700 5703 5705 5707 5710 5713 5716 5719 5722 5725 5728 5730 5733 5735 5738 5740 5743 5746 5749 5751 5754 5756
5702 5702 5702 5702 5702 5701 5700 5699 5697 5695 5693 5691 5689 5687 5685 5685 5685 5686 5687 5689 5690 5692 5694 5696 5699 5702 5705 5708 5712 5715 5718 5721 5723 5726 5729 5732 5734 5737 5739 5742 5745 5747 5749
5686 5687 5688 5689 5689 5689 5689 5689 5687 5686 5684 5682 5681 5679 5678 5678 5678 5678 5680 5681 5683 5685 5686 5688 5691 5694 5698 5702 5705 5708 5711 5715 5717 5720 5723 5726 5728 5730 5733 5735 5738 5740 5742
5667 5670 5672 5674 5676 5677 5678 5678 5677 5677 5676 5674 5673 5671 5671 5671 5671 5671 5672 5674 5676 5678 5680 5682 5685 5688 5691 5695 5698 5702 5705 5708 5712 5714 5717 5720 5722 5725 5727 5729 5731 5733 5735
5647 5651 5655 5658 5661 5664 5666 5667 5667 5667 5667 5666 5665 5664 5664 5664 5664 5664 5666 5668 5669 5672 5674 5676 5679 5683 5686 5689 5693 5696 5699 5702 5706 5708 5711 5714 5717 5719 5722 5724 5725 5727 5728
5625 5630 5636 5641 5646 5650 5653 5655 5657 5658 5658 5658 5658 5658 5658 5657 5658 5658 5660 5662 5663 5666 5669 5671 5674 5677 5681 5684 5688 5691 5694 5697 5700 5703 5707 5710 5712 5714 5716 5718 5719 5720 5721
5603 5609 5616 5623 5629 5635 5640 5643 5646 5648 5649 5650 5650 5651 5651 5652 5652 5653 5655 5657 5659 5661 5664 5667 5670 5673 5676 5679 5683 5686 5690 5693 5696 5699 5702 5705 5707 5710 5711 5712 5713 5713 5714